Canton, GA

12:20 PM EDT on April 28, 2017 (GMT -0400)
Canton

Weather History for KCNI - May, 2013

Change the Weather History Date:

Friday, May 24, 2013

  Actual Average (KMGE) Record (KMGE)
Temperature  
Mean Temperature 62 °F -  
Max Temperature 71 °F 78 °F 88 °F (2011)
Min Temperature 53 °F 60 °F 50 °F (2002)
Degree Days  
Heating Degree Days 3    
Growing Degree Days 12 (Base 50)    
Moisture  
Dew Point 44 °F    
Average Humidity 51    
Maximum Humidity 77    
Minimum Humidity 28    
Precipitation  
Precipitation 0.00 in - - ()
Sea Level Pressure  
Sea Level Pressure 30.15 in    
Wind  
Wind Speed 5 mph (NW)    
Max Wind Speed 10 mph    
Max Gust Speed 21 mph    
Visibility 10 miles    
Events      
Averages and records for this station are not official NWS values.
T = Trace of Precipitation, MM = Missing Value Source: NWS Daily Summary

Daily Weather History Graph

Daily Weather History Graph

Search for Another Location

Airport or City:

Trip Planner

Search our weather history database for the weather conditions in past years. The results will help you decide how hot, cold, wet, or windy it might be!

Date:

Astronomy

May. 24, 2013 Rise Set
Actual Time 6:29 AM EDT 8:39 PM EDT
Civil Twilight 6:01 AM EDT 9:08 PM EDT
Nautical Twilight 5:26 AM EDT 9:42 PM EDT
Astronomical Twilight 4:49 AM EDT 10:20 PM EDT
Moon 8:21 PM EDT (5/24) 5:58 AM EDT (5/24)
Length of Visible Light 15h 06m
Length of Day
14h 09m
Full, 100% of the Moon is Illuminated
May 24
Full
May 25
Full
May 31
Last Quarter
Jun 8
New
Jun 16
First Quarter

Hourly Weather History & Observations

Time (EDT) Temp. Dew Point Humidity Pressure Visibility Wind Dir Wind Speed Gust Speed Precip Events Conditions
12:15 AM 66.2 °F 50.0 °F 56% 30.02 in 10.0 mi Calm Calm - N/A   Scattered Clouds
12:35 AM 64.4 °F 50.0 °F 59% 30.03 in 10.0 mi NW 4.6 mph - N/A   Scattered Clouds
12:55 AM 64.4 °F 50.0 °F 59% 30.04 in 10.0 mi WNW 4.6 mph - N/A   Clear
1:15 AM 64.4 °F 50.0 °F 59% 30.04 in 10.0 mi NW 3.5 mph - N/A   Clear
1:35 AM 62.6 °F 48.2 °F 59% 30.04 in 10.0 mi NW 4.6 mph - N/A   Clear
1:55 AM 62.6 °F 50.0 °F 63% 30.04 in 10.0 mi WNW 5.8 mph - N/A   Clear
2:15 AM 62.6 °F 48.2 °F 59% 30.03 in 10.0 mi NW 3.5 mph - N/A   Clear
2:35 AM 60.8 °F 50.0 °F 68% 30.04 in 10.0 mi NW 4.6 mph - N/A   Clear
2:55 AM 60.8 °F 50.0 °F 68% 30.04 in 10.0 mi NW 4.6 mph - N/A   Clear
3:15 AM 60.8 °F 50.0 °F 68% 30.04 in 10.0 mi WNW 4.6 mph - N/A   Clear
3:35 AM 60.8 °F 50.0 °F 68% 30.05 in 10.0 mi WNW 3.5 mph - N/A   Clear
3:55 AM 59.0 °F 50.0 °F 72% 30.05 in 10.0 mi WNW 3.5 mph - N/A   Clear
4:15 AM 59.0 °F 50.0 °F 72% 30.06 in 10.0 mi NW 5.8 mph - N/A   Clear
4:35 AM 59.0 °F 50.0 °F 72% 30.06 in 10.0 mi NW 5.8 mph - N/A   Clear
4:55 AM 59.0 °F 50.0 °F 72% 30.06 in 10.0 mi WNW 5.8 mph - N/A   Clear
5:15 AM 59.0 °F 50.0 °F 72% 30.05 in 10.0 mi WNW 4.6 mph - N/A   Clear
5:35 AM 59.0 °F 50.0 °F 72% 30.06 in 10.0 mi WNW 5.8 mph - N/A   Clear
5:55 AM 59.0 °F 50.0 °F 72% 30.07 in 10.0 mi WNW 8.1 mph - N/A   Clear
6:15 AM 59.0 °F 50.0 °F 72% 30.07 in 10.0 mi WNW 5.8 mph - N/A   Clear
6:35 AM 59.0 °F 50.0 °F 72% 30.08 in 10.0 mi WNW 5.8 mph - N/A   Clear
6:55 AM 57.2 °F 50.0 °F 77% 30.09 in 10.0 mi NW 4.6 mph - N/A   Clear
7:15 AM 59.0 °F 50.0 °F 72% 30.09 in 10.0 mi WNW 5.8 mph - N/A   Clear
7:35 AM 59.0 °F 50.0 °F 72% 30.09 in 10.0 mi NW 8.1 mph - N/A   Clear
7:55 AM 59.0 °F 50.0 °F 72% 30.10 in 10.0 mi NW 6.9 mph - N/A   Clear
8:15 AM 60.8 °F 50.0 °F 68% 30.12 in 10.0 mi WNW 5.8 mph - N/A   Clear
8:35 AM 60.8 °F 50.0 °F 68% 30.12 in 10.0 mi NW 8.1 mph - N/A   Clear
8:55 AM 62.6 °F 50.0 °F 63% 30.13 in 10.0 mi NW 10.4 mph - N/A   Clear
9:15 AM 64.4 °F 48.2 °F 56% 30.14 in 10.0 mi NW 6.9 mph - N/A   Clear
9:35 AM 64.4 °F 48.2 °F 56% 30.15 in 10.0 mi NW 6.9 mph - N/A   Clear
9:55 AM 64.4 °F 46.4 °F 52% 30.16 in 10.0 mi NNW 9.2 mph 18.4 mph N/A   Clear
10:15 AM 64.4 °F 46.4 °F 52% 30.17 in 10.0 mi NNW 6.9 mph - N/A   Scattered Clouds
10:35 AM 64.4 °F 44.6 °F 49% 30.18 in 10.0 mi NW 9.2 mph 20.7 mph N/A   Scattered Clouds
10:55 AM 64.4 °F 42.8 °F 45% 30.18 in 10.0 mi NW 9.2 mph 20.7 mph N/A   Scattered Clouds
11:15 AM 64.4 °F 42.8 °F 45% 30.19 in 10.0 mi NW 5.8 mph 17.3 mph N/A   Scattered Clouds
11:35 AM 66.2 °F 41.0 °F 40% 30.19 in 10.0 mi NW 9.2 mph - N/A   Scattered Clouds
11:55 AM 68.0 °F 41.0 °F 37% 30.20 in 10.0 mi West 5.8 mph - N/A   Clear
12:15 PM 68.0 °F 41.0 °F 37% 30.20 in 10.0 mi West 9.2 mph 19.6 mph N/A   Clear
12:35 PM 66.2 °F 41.0 °F 40% 30.20 in 10.0 mi WNW 9.2 mph - N/A   Scattered Clouds
12:55 PM 68.0 °F 41.0 °F 37% 30.20 in 10.0 mi NW 5.8 mph - N/A   Scattered Clouds
1:15 PM 69.8 °F 41.0 °F 35% 30.19 in 10.0 mi WNW 5.8 mph - N/A   Scattered Clouds
1:35 PM 69.8 °F 41.0 °F 35% 30.19 in 10.0 mi NNW 9.2 mph - N/A   Clear
1:55 PM 71.6 °F 42.8 °F 35% 30.19 in 10.0 mi NW 4.6 mph - N/A   Clear
2:15 PM 71.6 °F 41.0 °F 33% 30.19 in 10.0 mi WNW 6.9 mph - N/A   Clear
2:35 PM 71.6 °F 41.0 °F 33% 30.19 in 10.0 mi NW 8.1 mph - N/A   Clear
2:55 PM 71.6 °F 39.2 °F 31% 30.20 in 10.0 mi NW 4.6 mph - N/A   Clear
3:15 PM 71.6 °F 39.2 °F 31% 30.19 in 10.0 mi NW 6.9 mph - N/A   Clear
3:35 PM 71.6 °F 39.2 °F 31% 30.19 in 10.0 mi NW 5.8 mph - N/A   Clear
3:55 PM 71.6 °F 39.2 °F 31% 30.19 in 10.0 mi NW 8.1 mph - N/A   Clear
4:15 PM 71.6 °F 39.2 °F 31% 30.19 in 10.0 mi WNW 8.1 mph - N/A   Clear
4:35 PM 71.6 °F 39.2 °F 31% 30.19 in 10.0 mi NW 8.1 mph - N/A   Clear
4:55 PM 71.6 °F 39.2 °F 31% 30.19 in 10.0 mi NW 4.6 mph - N/A   Clear
5:15 PM 71.6 °F 37.4 °F 29% 30.19 in 10.0 mi WNW 6.9 mph - N/A   Clear
5:35 PM 71.6 °F 37.4 °F 29% 30.20 in 10.0 mi WNW 10.4 mph 18.4 mph N/A   Clear
5:55 PM 69.8 °F 35.6 °F 28% 30.20 in 10.0 mi NW 8.1 mph - N/A   Clear
6:15 PM 69.8 °F 35.6 °F 28% 30.20 in 10.0 mi NW 5.8 mph - N/A   Clear
6:35 PM 69.8 °F 35.6 °F 28% 30.20 in 10.0 mi NW 3.5 mph - N/A   Clear
6:55 PM 68.0 °F 37.4 °F 33% 30.20 in 10.0 mi NW 5.8 mph - N/A   Clear
7:15 PM 68.0 °F 39.2 °F 35% 30.20 in 10.0 mi NW 5.8 mph - N/A   Clear
7:35 PM 66.2 °F 37.4 °F 35% 30.20 in 10.0 mi NW 4.6 mph - N/A   Clear
7:55 PM 64.4 °F 41.0 °F 42% 30.20 in 10.0 mi NNW 4.6 mph - N/A   Clear
8:15 PM 64.4 °F 41.0 °F 42% 30.21 in 10.0 mi NW 3.5 mph - N/A   Clear
8:35 PM 62.6 °F 41.0 °F 45% 30.21 in 10.0 mi NW 4.6 mph - N/A   Clear
8:55 PM 60.8 °F 41.0 °F 48% 30.22 in 10.0 mi NW 3.5 mph - N/A   Clear
9:15 PM 60.8 °F 41.0 °F 48% 30.22 in 10.0 mi NNW 3.5 mph - N/A   Clear
9:35 PM 60.8 °F 41.0 °F 48% 30.22 in 10.0 mi NNW 3.5 mph - N/A   Clear
9:55 PM 60.8 °F 37.4 °F 42% 30.22 in 10.0 mi Calm Calm - N/A   Clear
10:15 PM 60.8 °F 37.4 °F 42% 30.23 in 10.0 mi Calm Calm - N/A   Clear
10:35 PM 60.8 °F 35.6 °F 39% 30.24 in 10.0 mi Calm Calm - N/A   Clear
10:55 PM 53.6 °F 41.0 °F 62% 30.24 in 10.0 mi Calm Calm - N/A   Clear
11:15 PM 53.6 °F 42.8 °F 67% 30.25 in 10.0 mi NW 3.5 mph - N/A   Clear
11:35 PM 53.6 °F 42.8 °F 67% 30.25 in 10.0 mi Calm Calm - N/A   Clear
11:55 PM 55.4 °F 41.0 °F 58% 30.26 in 10.0 mi Calm Calm - N/A   Clear